Showing default

WILDFIRE 1, 57764

Orbit data source: Space-Track

WILDFIRE 1, 57764 is a payload satellite owned by SDA (US) in LEO that was launched on Sat, 02 Sep 2023 UTC via an FALCON 9 launch vehicle from the Air Force Western Test Range (AFWTR). Payload-class satellites include a variety of spacecraft equipped with specific instruments for various scientific and technological missions. These include communications satellites like Starlink; space stations such as the ISS; scientific satellites like the Hubble; Earth observation satellites from companies like Planet Labs, Umbra, and HawkEye 360; GPS; miniature CubeSats for education and research; and military/defense satellites.

Loading next visibility...
Identifier
57764, 2023-133H
Orbit
LEO
Country
Flag of USUS
Related business
Manufacturer
TYVAK/LMSSD
Mission
Operational Defense Communications
Bus & Motor
MAVERICKS, Unknown motor
Mass
~300 kg wet, ~300 kg dry
Launch date (UTC)
2023-09-02 (2 years ago)
Launch vehicle
FALCON 9
Launch site
Air Force Western Test Range (AFWTR)
Object type
Payload
Rocket body
Debris
Shape & HBR
Box + 2 Pan, 1.3 m
Radar Cross Section
0.713 m², Medium (>0.1 m² and < 1m²)

Expand to show TLE details & history
Last TLE update: 10 hours ago

TLE from 10 hours ago
0 WILDFIRE 1
1 57764U 23133H   25346.96417621  .00000124  00000-0  98433-4 0  9995
2 57764  80.9985 185.8502 0006886 139.4177 220.7494 13.85695516115261
Epoch: 2025-12-12T23:08Z
TLE epoch observation values (Epoch: 2025-12-12T23:08:24.824Z)
Latitude
-0.00003°
Longitude
116.84851°
Altitude
950.434 km
Speed
7.375 km/s
True Right ascension
12h 23m 24s
True Declination
0° 00' 00"
Sunlit
Object was in daylight at epoch
Visualization orbit readout
Latitude
Unknown
Longitude
Unknown
Altitude
Unknown
Speed
Unknown
Apparent Right ascension
Unknown
Apparent Declination
Unknown
Sunlit
N/A
Visualization observer readout
Local Sidereal Time
07:30:59
Azimuth
Unknown
Elevation
Unknown
Doppler factor
Unknown
Orbital elements
Apogee altitude
946.013 km
Perigee altitude
935.933 km
Semi-major axis
7,319.11 km
Eccentricity
0.00069
Inclination
80.9985°
RAAN
185.8502°
Arg. of periapsis
139.4177°
True anomaly
220.69793°
Mean anomaly
220.7494°
Eccentric anomaly
220.72366°
Mean motion
3.46622 °/min
Orbital period
103.86 mins
BSTAR
0.000098433
Loading maneuver chart data...
Computing Atmospheric mass density...
Loading historical data...
Loading historical data...
Loading historical data...
Loading historical data...
Loading historical data...
Loading historical data...
Loading historical data...

Documentation

Showing up to 5 results
|